Wind_Speed
6 4 1 2 6 8 7 8 7 7 7 7 7 7 7 7 8 6 4 3 4 4 4 5 5 6 7 9 9 10 12 12 12 13 13 13 13 14 14 14 14 15 14
9 6 3 1 3 5 5 5 6 7 6 7 8 8 8 6 5 5 2 4 5 5 5 5 5 5 5 5 7 9 10 10 10 11 12 13 14 15 15 15 15 15 15
10 7 3 1 3 4 4 5 6 7 8 8 8 8 8 8 6 5 3 4 5 5 6 5 4 4 4 5 6 8 9 9 10 11 13 14 15 16 16 16 17 17 17
12 8 5 3 2 1 2 4 6 6 7 7 7 7 8 8 6 5 3 3 3 4 5 5 4 4 5 6 7 8 9 10 11 13 13 14 16 15 17 16 17 17 17
10 8 6 3 3 3 1 1 4 6 6 7 7 7 6 5 6 6 5 4 5 5 5 5 5 6 7 7 8 9 10 11 12 13 13 14 14 14 15 15 14 14 14
9 9 6 9 8 6 3 1 1 5 6 7 8 8 7 6 4 5 5 5 4 4 5 5 6 6 7 7 9 10 11 11 13 13 14 13 14 14 14 14 14 14 15
16 14 13 12 10 7 4 3 2 3 5 6 7 8 9 8 6 4 3 4 3 3 2 3 4 5 5 6 7 9 9 10 11 12 13 14 14 14 14 14 15 14 14
15 18 17 14 12 11 8 6 5 5 5 5 6 7 7 7 6 5 4 3 3 3 3 4 5 5 6 7 8 8 9 10 12 12 13 14 14 14 15 16 16 16 15
24 21 19 16 15 14 11 10 8 7 7 6 6 7 7 7 7 6 5 4 4 4 4 4 5 7 8 9 10 10 10 11 12 14 14 14 15 15 16 16 17 17 16
21 21 20 19 18 16 14 12 10 9 9 8 8 8 8 8 8 7 6 6 6 5 6 7 7 8 9 11 11 12 12 12 13 14 16 15 17 18 18 18 18 20 20
21 21 21 21 20 19 17 15 13 11 11 10 10 9 9 9 9 9 8 8 7 8 8 9 9 10 12 11 12 13 14 15 16 16 18 19 20 22 21 21 21 22 24
22 21 21 22 22 23 21 16 17 14 14 13 12 11 11 10 10 11 11 11 11 10 11 11 11 12 13 13 13 15 16 17 18 19 18 21 23 25 24 23 23 25 24
23 24 23 23 24 24 24 22 23 19 17 16 15 14 13 12 12 12 13 14 14 13 13 13 12 13 14 15 16 17 18 19 21 22 20 23 25 25 24 20 20 21 20
26 25 24 23 23 24 24 23 24 16 22 19 18 17 15 15 14 15 16 15 17 16 14 14 15 15 15 16 17 18 20 21 23 24 22 22 21 20 21 20 19 20 20
30 29 26 24 23 22 22 20 21 22 26 21 20 19 19 17 17 17 17 17 18 18 16 16 17 17 17 18 18 20 21 22 22 22 21 19 19 19 20 20 20 20 20
32 31 30 26 24 22 21 20 21 20 23 21 22 20 21 20 20 20 20 19 19 19 18 18 17 18 18 19 20 21 22 22 21 19 21 17 18 19 19 20 21 22 23
34 35 34 33 30 28 26 24 22 24 25 23 23 22 22 22 21 22 22 20 20 19 18 18 18 19 19 20 21 21 21 20 19 19 19 19 18 20 21 21 22 23 25
39 39 38 38 35 32 30 28 27 28 28 25 26 26 25 25 24 23 24 22 20 19 18 18 18 18 20 21 20 20 18 18 19 19 19 20 21 22 22 23 25 26 27
43 43 42 39 35 34 32 31 30 31 30 28 30 29 27 28 28 27 25 22 20 18 17 17 18 19 20 20 19 19 20 20 20 21 22 23 23 24 26 26 28 29 30
47 48 45 44 39 36 34 33 33 32 34 33 34 31 31 31 32 28 24 21 19 17 17 16 18 19 19 19 20 21 22 22 23 24 25 26 26 27 29 30 31 33 34
58 54 52 49 46 41 39 36 35 34 35 34 32 33 33 32 31 27 25 20 18 17 16 16 17 17 17 19 21 23 24 24 26 26 27 28 30 30 31 33 34 36 38
55 58 58 54 52 47 43 40 37 36 35 33 33 36 35 32 29 27 25 20 17 17 16 16 16 16 17 20 22 24 25 28 25 26 28 29 31 33 34 35 37 39 41
49 52 58 56 56 52 47 46 42 38 35 35 36 36 32 32 29 28 23 22 20 17 16 15 16 17 18 20 23 26 29 29 30 29 30 30 32 34 35 37 38 39 40
44 48 50 57 58 55 52 49 44 36 33 33 33 32 31 31 32 24 24 22 22 19 16 16 16 18 21 23 25 27 30 32 34 33 34 35 37 37 38 38 36 36 38
43 46 51 51 55 56 54 50 43 36 35 33 32 31 32 33 31 26 32 28 22 19 17 17 18 20 23 26 28 32 34 36 37 38 36 36 39 41 43 45 43 42 42
43 47 52 46 50 54 53 47 40 39 37 35 34 34 33 34 30 28 33 27 23 21 19 19 21 23 26 29 32 34 37 38 39 41 43 41 43 42 44 44 43 44 46
Wind_Direction
238 225 177 13 1 12 12 6 7 4 350 338 333 327 325 321 321 308 287 246 217 198 200 214 217 215 218 228 232 240 239 241 246 252 259 268 274 280 283 287 289 294 298
225 216 209 318 7 15 10 4 3 358 352 344 332 323 326 321 314 311 269 219 205 200 206 217 215 220 215 218 222 229 237 243 247 254 261 268 275 277 282 286 291 294 292
218 213 207 241 347 358 359 357 357 359 357 350 336 327 322 322 320 301 270 222 202 200 209 214 213 232 234 229 231 237 241 245 249 256 263 270 275 282 287 291 291 289 288
212 204 192 213 286 309 350 350 347 349 359 360 347 333 322 314 307 292 275 253 228 224 222 226 232 234 243 250 252 253 255 257 261 266 271 277 281 287 287 289 287 288 288
198 196 194 202 241 228 234 347 346 342 350 358 1 356 345 320 305 295 280 258 245 238 240 238 239 243 248 252 259 265 269 272 272 273 279 280 283 284 284 284 284 285 282
195 193 228 272 247 239 219 177 353 334 342 352 360 3 7 358 322 291 286 274 256 250 245 248 253 259 264 268 269 270 273 276 278 281 282 285 282 281 281 280 280 282 282
236 236 255 234 220 229 242 250 278 310 329 344 353 0 9 5 353 333 302 286 281 277 293 296 292 285 287 283 285 284 285 285 284 282 281 281 279 281 280 280 280 277 277
240 246 235 223 224 224 230 245 261 285 311 327 345 360 9 5 3 6 10 354 343 324 319 312 307 302 301 299 296 295 295 298 294 293 292 287 294 288 285 281 279 282 284
231 235 225 225 231 232 234 244 254 274 292 305 326 348 357 2 1 2 5 3 2 349 350 336 324 324 320 308 303 302 302 298 297 296 294 297 292 291 288 291 292 291 285
231 235 237 237 238 244 236 242 253 264 278 293 308 325 339 348 352 352 346 335 333 328 320 317 317 312 304 303 305 305 303 299 295 293 291 294 291 288 289 290 290 287 285
230 237 243 245 245 248 244 243 249 260 269 278 293 307 317 330 337 336 332 325 313 310 308 308 310 308 306 308 308 303 301 298 295 292 292 290 288 287 288 289 288 286 281
227 233 240 246 247 248 250 255 250 249 256 263 274 287 297 309 318 321 321 317 314 309 305 304 306 304 306 307 304 302 300 296 292 289 292 289 290 291 291 290 286 282 284
227 231 236 238 243 246 247 244 247 253 255 260 264 273 286 296 301 306 310 311 310 307 303 303 302 302 304 306 304 302 296 293 292 291 293 291 291 291 293 294 289 287 289
231 235 237 238 239 242 243 245 252 258 268 260 263 269 276 286 292 297 300 306 306 303 300 301 299 300 303 300 299 298 295 294 293 293 294 290 290 292 294 293 290 291 290
234 237 238 238 240 243 242 243 245 243 257 262 262 267 271 277 285 290 295 298 300 299 296 293 295 299 299 298 298 297 297 295 293 292 292 291 291 293 294 294 293 294 292
238 239 239 236 236 236 242 243 246 254 264 267 266 267 270 272 278 285 290 293 293 294 290 289 291 294 295 296 299 300 298 296 294 293 294 293 295 296 296 295 295 295 295
238 242 241 238 237 239 244 247 251 252 254 258 264 268 272 274 275 280 287 285 284 286 285 286 288 292 295 299 301 299 297 295 294 293 294 296 295 296 295 295 295 294 293
231 237 241 244 243 242 243 245 251 255 257 259 266 269 272 276 277 278 278 281 280 280 280 282 288 293 298 302 303 301 298 296 297 297 297 298 299 297 296 297 296 296 295
231 235 240 243 245 247 249 250 252 256 258 260 264 267 272 277 277 273 274 278 275 276 275 281 289 296 301 306 307 306 304 302 301 300 300 298 297 297 296 296 295 296 296
230 234 235 241 244 246 248 250 256 262 263 257 260 266 269 272 273 274 273 273 269 269 272 280 289 296 304 311 313 311 308 306 303 300 299 297 297 296 296 296 297 296 295
233 236 236 238 242 245 248 250 255 264 262 256 259 262 267 272 272 270 266 264 261 263 269 279 289 296 308 314 316 314 311 308 305 302 299 297 297 297 296 296 297 295 295
238 237 238 237 241 243 246 249 253 257 258 253 256 263 266 269 270 268 265 262 264 260 267 279 287 299 310 314 317 317 315 312 307 302 300 299 299 298 298 298 298 297 296
241 240 238 236 238 241 243 246 248 255 258 250 255 263 264 264 270 271 265 258 264 257 266 277 289 301 309 314 319 320 320 316 313 308 303 301 298 298 297 296 296 295 294
242 243 240 236 236 238 239 244 249 256 255 250 251 254 256 258 266 249 251 257 260 253 264 276 288 299 307 313 315 318 319 317 314 310 308 305 303 301 298 296 295 293 292
235 238 241 236 235 236 239 243 247 251 243 241 242 246 248 252 261 261 238 255 249 252 262 274 287 297 305 311 315 319 319 317 313 310 306 304 304 305 303 303 303 301 299
232 232 238 233 234 235 237 240 243 241 242 246 248 248 244 247 249 237 251 254 243 251 262 276 288 297 303 309 312 316 317 316 313 311 309 308 306 305 303 304 304 303 300
Height
3144 3145 3145 3145 3144 3144 3143 3143 3142 3141 3140 3140 3138 3137 3136 3136 3135 3134 3133 3133 3133 3134 3135 3135 3136 3136 3137 3138 3139 3141 3142 3143 3143 3144 3144 3145 3144 3144 3144 3144 3145 3143 3143
3143 3144 3144 3144 3144 3143 3143 3142 3142 3141 3140 3139 3139 3138 3137 3136 3135 3134 3133 3133 3133 3134 3134 3135 3136 3136 3137 3137 3138 3140 3141 3142 3142 3142 3143 3142 3143 3143 3143 3143 3142 3142 3142
3143 3144 3144 3144 3144 3143 3143 3143 3142 3141 3140 3139 3138 3137 3137 3136 3135 3134 3134 3134 3134 3134 3135 3135 3135 3136 3137 3137 3138 3139 3140 3141 3141 3141 3141 3141 3142 3141 3141 3141 3141 3140 3140
3142 3143 3143 3143 3143 3143 3143 3143 3143 3142 3141 3140 3139 3137 3136 3136 3135 3135 3134 3134 3134 3135 3136 3136 3136 3136 3137 3137 3138 3139 3139 3140 3140 3140 3140 3140 3140 3139 3139 3139 3139 3138 3138
3140 3142 3143 3143 3143 3143 3143 3142 3143 3143 3142 3141 3139 3138 3137 3136 3136 3135 3135 3135 3135 3135 3136 3136 3136 3136 3136 3136 3137 3137 3138 3138 3138 3138 3138 3138 3137 3137 3137 3137 3137 3136 3136
3139 3140 3141 3142 3142 3143 3142 3141 3142 3142 3142 3141 3140 3138 3138 3136 3136 3135 3135 3136 3136 3136 3136 3135 3135 3135 3136 3136 3137 3136 3137 3137 3137 3136 3136 3136 3135 3135 3135 3134 3134 3133 3133
3138 3138 3140 3140 3140 3141 3142 3141 3141 3141 3141 3141 3140 3139 3138 3137 3136 3135 3135 3135 3135 3135 3135 3135 3135 3135 3136 3136 3136 3136 3137 3136 3136 3135 3134 3134 3134 3133 3133 3132 3131 3131 3131
3137 3137 3138 3138 3139 3139 3140 3140 3140 3141 3141 3140 3140 3139 3138 3138 3137 3136 3136 3135 3134 3134 3134 3135 3135 3135 3135 3135 3136 3136 3135 3135 3134 3133 3133 3132 3132 3131 3131 3129 3130 3129 3129
3135 3135 3137 3137 3138 3138 3139 3139 3139 3140 3140 3140 3140 3139 3139 3138 3137 3137 3136 3136 3135 3136 3135 3135 3135 3134 3135 3135 3134 3134 3134 3134 3132 3132 3131 3130 3130 3129 3129 3128 3128 3128 3127
3133 3134 3134 3136 3137 3138 3137 3138 3138 3139 3139 3139 3139 3139 3138 3138 3137 3136 3136 3136 3136 3136 3135 3135 3134 3134 3134 3134 3134 3133 3132 3131 3131 3130 3128 3128 3127 3126 3126 3125 3125 3124 3123
3129 3131 3132 3133 3134 3136 3136 3136 3137 3137 3138 3138 3138 3138 3138 3138 3137 3137 3136 3136 3136 3136 3135 3135 3134 3134 3133 3132 3132 3132 3131 3130 3129 3127 3126 3125 3124 3123 3122 3122 3121 3120 3118
3125 3127 3129 3130 3131 3132 3134 3135 3135 3135 3135 3136 3137 3137 3137 3137 3137 3137 3136 3135 3135 3134 3134 3134 3133 3132 3131 3130 3130 3129 3128 3127 3126 3124 3123 3121 3120 3119 3118 3118 3116 3114 3114
3122 3123 3125 3126 3127 3129 3130 3132 3132 3133 3133 3134 3134 3135 3135 3136 3136 3136 3135 3134 3134 3133 3133 3132 3131 3130 3129 3128 3127 3126 3126 3124 3123 3121 3120 3118 3117 3115 3113 3114 3112 3110 3110
3118 3120 3121 3122 3123 3125 3125 3127 3130 3130 3132 3131 3132 3132 3133 3134 3134 3133 3133 3133 3132 3131 3131 3130 3129 3127 3126 3126 3125 3123 3123 3121 3119 3117 3116 3114 3113 3111 3110 3110 3108 3107 3107
3115 3116 3117 3119 3120 3121 3122 3124 3125 3127 3129 3128 3129 3130 3130 3130 3131 3131 3130 3130 3130 3129 3128 3127 3126 3125 3124 3123 3122 3121 3119 3117 3115 3113 3111 3110 3109 3108 3107 3106 3104 3103 3103
3111 3112 3113 3115 3116 3117 3119 3119 3121 3122 3124 3125 3126 3127 3127 3127 3128 3128 3127 3127 3127 3126 3126 3125 3123 3121 3121 3120 3118 3116 3114 3113 3111 3109 3107 3107 3105 3104 3103 3102 3101 3099 3098
3107 3108 3108 3110 3112 3114 3115 3116 3117 3118 3119 3121 3122 3123 3123 3123 3124 3124 3124 3124 3124 3123 3123 3121 3120 3118 3117 3116 3114 3113 3111 3109 3107 3105 3103 3102 3101 3100 3099 3097 3096 3094 3093
3100 3101 3103 3104 3107 3109 3110 3112 3112 3114 3115 3117 3117 3118 3119 3120 3120 3120 3120 3120 3120 3119 3119 3118 3116 3115 3114 3112 3110 3108 3107 3105 3103 3101 3100 3098 3096 3095 3094 3091 3090 3088 3087
3092 3094 3096 3098 3101 3104 3106 3107 3108 3108 3110 3112 3112 3113 3115 3115 3116 3116 3116 3116 3115 3115 3115 3114 3113 3111 3110 3108 3106 3104 3103 3101 3099 3097 3095 3093 3092 3089 3088 3086 3084 3082 3080
3083 3085 3089 3090 3095 3098 3099 3101 3102 3104 3104 3106 3107 3109 3110 3110 3110 3111 3111 3111 3111 3111 3111 3110 3109 3108 3106 3104 3102 3100 3099 3096 3094 3093 3090 3089 3086 3084 3082 3079 3077 3075 3073
3072 3075 3079 3083 3087 3090 3091 3094 3096 3097 3098 3100 3102 3103 3104 3105 3105 3105 3105 3106 3106 3106 3106 3106 3105 3104 3102 3100 3099 3096 3094 3092 3090 3087 3085 3082 3079 3077 3075 3073 3069 3066 3063
3061 3065 3070 3074 3077 3081 3084 3087 3089 3089 3091 3094 3096 3098 3099 3099 3100 3100 3100 3101 3102 3102 3102 3102 3101 3100 3098 3097 3094 3092 3090 3087 3086 3083 3080 3077 3073 3070 3068 3065 3062 3057 3054
3049 3053 3058 3064 3068 3072 3076 3078 3080 3082 3085 3087 3090 3091 3093 3093 3095 3096 3096 3097 3098 3098 3098 3098 3097 3096 3094 3093 3090 3087 3083 3081 3078 3076 3074 3070 3067 3064 3061 3058 3054 3050 3045
3039 3043 3046 3053 3057 3063 3067 3069 3072 3077 3079 3081 3083 3085 3087 3088 3089 3091 3092 3092 3093 3093 3093 3093 3093 3091 3090 3088 3086 3083 3079 3075 3070 3069 3066 3061 3057 3055 3052 3049 3047 3043 3038
3028 3031 3035 3041 3048 3053 3057 3061 3066 3069 3071 3074 3076 3079 3080 3082 3083 3084 3086 3087 3088 3089 3089 3088 3088 3087 3085 3083 3080 3076 3072 3068 3064 3060 3058 3055 3049 3045 3040 3035 3033 3030 3026
3016 3019 3021 3030 3037 3043 3049 3054 3059 3061 3064 3068 3070 3072 3074 3077 3078 3080 3081 3082 3084 3084 3084 3084 3083 3082 3080 3077 3074 3071 3067 3063 3057 3051 3045 3044 3039 3038 3031 3026 3023 3018 3014